www.pogodaiklimat.ru

Погода и климат >> Архив погоды >> Россия >> Мордовия >> Темников


ПОГОДА в Темникове

  • Прогноз погоды в Темникове
  • Монитор погоды в Темникове

АРХИВ ПОГОДЫ в Темникове

Время (UTC), дата Ветер
(напр.,м/с)
 
Видим.   Явления Облачность Т
(С)
Тd
(С)
f
(%)
Тe
(С)
Тes
(С)
Комфортность P
(гПа)
Po
(гПа)
Тmin
(С)
Tmax
(С)
R
(мм)
R24
(мм)
S
(см)
18 15.01 Ю 3-6
{10}
10 км {снег} 3/0
[Ac trans]
-1.4 -5.1 76 -6 -6 1000.9 983.5
21 15.01 ЮЗ 2-3
{7}
10 км 10/0
[Ac As]
-3.0 -7.2 73 -7 -7 1002.0 984.6
00 16.01 В 1-1
{3}
10 км 10/10 300 м
[St]
-4.7 -7.8 79 -7 -7 1001.7 984.2
03 16.01 С 1-1
{2}
4000 м слаб. снег 10/10 300 м
[Frnb Ns]
-5.1 -7.2 85 -7 -7 1000.5 983.0 -5.1 0.0 33
06 16.01 штиль 0
{2}
4000 м слаб. снег 10/10 300 м
[Frnb Ns]
-5.1 -6.5 90 -6 -6 999.5 982.1 -5.2
09 16.01 СЗ 2-3
{3}
4000 м слаб. снег 10/10 300 м
[Frnb Ns]
-4.0 -5.5 89 -8 -8 998.2 980.8
12 16.01 СЗ 3-5
{6}
4000 м слаб. снег 10/10 300 м
[Frnb Ns]
-4.3 -5.9 89 -10 -10 997.0 979.6
15 16.01 З 2-3
{6}
4000 м слаб. снег 10/10 300 м
[Frnb Ns]
-4.6 -5.9 91 -9 -9 997.9 980.5 -3.9 4
18 16.01 З 4-7
{8}
10 км в посл. час снег 10/8 300 м
[Frnb Ac trans]
-7.1 -9.2 85 -14 -14 1000.7 983.1
21 16.01 З 2-4
{8}
10 км 6/4 300 м
[Sc Ac trans]
-10.1 -11.4 90 -15 -15 1003.5 985.6
00 17.01 З 2-3
{7}
10 км 10/10 300 м
[St]
-9.0 -10.6 88 -14 -14 1005.8 988.0
03 17.01 Ю 1-2
{5}
10 км 10/10 300 м
[St]
-7.6 -9.8 84 -10 -10 1007.2 989.4 -10.4 0.6 37
06 17.01 ЮЗ 3-6
{6}
4000 м слаб. снег 10/10 300 м
[Frnb Ns]
-7.1 -9.6 82 -13 -13 1008.4 990.7
09 17.01 Ю 2-4
{6}
4000 м слаб. снег 10/10 300 м
[Frnb Ns]
-5.9 -8.9 79 -10 -10 1009.6 991.9
12 17.01 ЮЗ 4-9
{9}
20 км {снег} 10/10 300 м
[St]
-4.6 -7.7 79 -11 -11 1009.0 991.4
15 17.01 ЮЗ 4-9
{9}
10 км позёмок 10/10 300 м
[St]
-5.4 -8.7 78 -12 -12 1009.5 991.8 -4.5 0.0
18 17.01 Ю 4-7
{10}
10 км {метель} 8/5 600 м
[Sc Ac trans]
-5.5 -8.9 77 -12 -12 1007.9 990.2
21 17.01 Ю 5-9
{11}
10 км 10/10 600 м
[Sc]
-5.5 -8.5 79 -13 -13 1006.2 988.5
00 18.01 ЮЗ 5-9
{12}
10 км 10/10 300 м
[St]
-5.0 -8.6 76 -12 -12 1004.3 986.8
03 18.01 ЮЗ 5-10
{12}
10 км 10/10 300 м
[St]
-3.2 -6.7 77 -10 -10 1003.5 986.1 -5.7 35
06 18.01 ЮЗ 4-7
{11}
20 км 10/10 300 м
[St]
-2.4 -5.3 80 -8 -8 1004.9 987.5
09 18.01 ЮЗ 3-6
{9}
20 км 10/10 300 м
[St]
-1.8 -4.9 79 -7 -7 1006.4 989.0
12 18.01 ЮЗ 3-6
{8}
20 км 10/10 300 м
[St]
-0.7 -4.2 77 -5 -5 1007.5 989.9
15 18.01 ЮЗ 3-6
{8}
10 км 10/10 300 м
[St]
-0.7 -3.5 81 -5 -5 1008.1 990.8 -0.7
18 18.01 Ю 4-7
{8}
10 км 10/10 300 м
[St]
-0.5 -3.2 82 -6 -6 1006.8 989.5
21 18.01 Ю 4-7
{9}
10 км {снег} 10/10 300 м
[St]
-0.1 -2.4 84 -6 -6 1005.0 987.7
00 19.01 ЮЗ 4-8
{9}
4000 м слаб. снег {метель} 10/10 300 м
[Frnb Ns]
+0.3 -1.6 87 -5 -5 1005.0 987.7
03 19.01 ЮЗ 5-8
{10}
4000 м слаб. снег {метель} 10/10 300 м
[Frnb Ns]
+0.8 -1.3 86 -5 -5 1004.8 987.6 -0.7 0.4 36
06 19.01 З 4-8
{9}
20 км {снег, метель} 10/10 300 м
[Frnb]
+1.1 -2.5 77 -4 -4 1005.8 988.6
09 19.01 З 4-6
{11}
20 км {снег, метель} 10/10 300 м
[Sc]
-1.7 -6.2 71 -7 -7 1008.8 991.4
12 19.01 СЗ 3-4
{8}
20 км {снег, метель} 8/5 300 м
[Sc Cc]
-3.7 -9.4 65 -9 -9 1010.5 992.8
15 19.01 З 3-4
{4}
10 км 1/0
[Ci fib]
-7.0 -10.3 77 -13 -13 1011.8 994.0 +1.2 0.0
18 19.01 ЮЗ 2-3
{4}
10 км ясно -9.1 -11.7 81 -14 -14 1012.6 994.7
21 19.01 З 3-6
{6}
10 км 1/0
[Ac trans]
-8.3 -11.5 78 -14 -14 1013.2 995.3
00 20.01 З 2-4
{6}
10 км 8/0
[Ac As]
-9.6 -11.7 85 -14 -14 1014.6 996.5
03 20.01 З 4-7
{8}
10 км ясно -8.9 -12.3 76 -16 -16 1015.8 997.8 -9.9 36
06 20.01 З 2-3
{7}
20 км 3/3 600 м
[Sc As trans]
-11.9 -13.2 90 -16 -16 1018.2 1000.0 -11.4
09 20.01 ЮЗ 3-6
{6}
20 км 9/8 600 м
[Sc Ac As]
-7.4 -11.3 74 -13 -13 1017.9 999.9
12 20.01 ЮЗ 4-7
{7}
20 км 3/0
[Ci fib]
-3.9 -11.1 57 -10 -9 1016.3 998.5
15 20.01 ЮЗ 4-6
{8}
4000 м 8/5 300 м
[Sc As trans Ci fib]
-5.7 -11.4 64 -12 -12 1015.7 997.9 -3.7
18 20.01 З 4-7
{9}
10 км 10/10 300 м
[St]
-6.4 -10.5 73 -13 -13 1014.8 997.0
21 20.01 ЮЗ 4-7
{10}
10 км 10/10 300 м
[St]
-6.1 -10.1 73 -12 -12 1014.2 996.4
00 21.01 ЮЗ 4-6
{8}
10 км 10/10 300 м
[St]
-6.4 -10.0 76 -13 -13 1013.3 995.5
03 21.01 ЮЗ 4-7
{9}
10 км 10/10 300 м
[St]
-6.9 -10.2 77 -13 -13 1012.3 994.5 -6.9 34
06 21.01 ЮЗ 4-6
{9}
10 км {снег} 10/10 300 м
[Frnb]
-8.6 -11.4 80 -15 -15 1012.1 994.2 -8.6
09 21.01 ЮЗ 4-7
{9}
4000 м слаб. снег {метель} 10/10 300 м
[Frnb Ns]
-8.3 -12.0 75 -15 -15 1011.4 993.5
12 21.01 ЮЗ 3-5
{8}
4000 м слаб. снег {метель} 10/10 300 м
[Frnb Ns]
-8.1 -11.3 78 -14 -14 1009.8 992.0
15 21.01 ЮЗ 1-2
{5}
10 км {снег, метель} 8/6 600 м
[Sc Ac trans Ci fib]
-10.0 -12.0 85 -12 -12 1009.6 991.6 -6.9 0.9
18 21.01 ЮЗ 1-2
{3}
10 км {снег, метель} 8/5 600 м
[Sc Ac trans]
-9.7 -11.4 87 -12 -12 1009.5 991.5
21 21.01 З 3-4
{5}
10 км 10/5 600 м
[Sc Ac trans]
-9.2 -11.2 85 -15 -15 1010.0 992.2
00 22.01 З 2-4
{6}
10 км 10/10 600 м
[Sc]
-11.8 -13.8 85 -16 -16 1011.6 993.4
03 22.01 З 3-4
{5}
10 км 10/8 600 м
[Sc Ac trans]
-13.9 -15.9 85 -20 -20 1012.9 994.5 -14.2 38
06 22.01 З 3-5
{5}
4000 м слаб. снег 10/10 300 м
[Frnb Ns]
-15.6 -17.5 85 -22 -22 1014.6 996.1 -15.8
09 22.01 З 4-6
{6}
20 км {снег} 3/0
[Ac trans]
-13.8 -17.3 75 -21 -20 1015.8 997.4
12 22.01 З 3-6
{7}
20 км {снег} 5/3 600 м
[Sc Ac trans]
-14.2 -17.7 75 -21 -20 1016.9 998.5

 

Местоположение метеостанции Темников (Мордовия, Россия): широта 54.63 долгота 43.23 высота над уровнем моря 139 м.

В архиве по умолчанию представлена погода в Темникове за последнюю неделю. Архивные данные за месяц целиком и за предыдущие месяцы, начиная с января 2011 года, Вы можете получить, выбрав интересующий диапазон дат из раскрывающегося списка и нажав кнопку "Ввод!".


*Определитесь, кто Вы:
робот инопланетянин человек

Внимание! Время в таблицах - всемирное. Для получения местного времени необходимо прибавить поправку, которая равна 3 ч.

Смотрите также архив погоды в соседних городах и на ближайших метеорологических станциях:

Погода в Краснослободске (Мордовия, Россия) (41 км)
Погода в Торбеево (Мордовия, Россия) (61 км)
Погода в Сасово (Рязанская область, Россия) (87 км)
Погода в Арзамасе (Нижегородская область, Россия) (89 км)
Погода в Лукоянове (Нижегородская область, Россия) (93 км)
Погода в Елатьме (Рязанская область, Россия) (100 км)
Погода в Выксе (Нижегородская область, Россия) (105 км)
Погода в Инсаре (Мордовия, Россия) (113 км)
Погода в Муроме (Владимирская область, Россия) (132 км)
Погода в Земетчино (Пензенская область, Россия) (134 км)

Пояснения к столбцам:

Ветер - указаны скорость ветра в м/с - средняя за 10 мин, порывы в срок и между сроками (в фигурных скобках) и направление, откуда дует ветер: С - северный, СВ - северо-восточный, В - восточный, ЮВ - юго-восточный, Ю - южный, ЮЗ - юго-западный, З - западный, СЗ - северо-западный.
Видимость - горизонтальная дальность видимости в метрах или километрах. При видимости от 1 до 10 км при отсутствии осадков обычно наблюдается дымка, при ухудшении видимости до 1 км и менее - туман. В сухую погоду видимость может ухудшаться дымом, пылью или мглою.
Явления - указаны атмосферные явления, наблюдавшиеся в срок или в последний час перед сроком; фигурными скобками обозначены явления, наблюдавшиеся между сроками (за 1-3 часа до срока); квадратными скобками обозначены град или гололедные отложения с указанием их диаметра в мм.
Облачность - указаны через наклонную черту общая и нижняя облачность в баллах и высота нижней границы облаков в метрах; квадратными скобками обозначены формы облаков: Ci - перистые, Cs - перисто-слоистые, Cc - перисто-кучевые, Ac - высококучевые, As - высокослоистые, Sc - слоисто-кучевые, Ns - слоисто-дождевые, Cu - кучевые, Cb - кучево-дождевые. Подробнее классификацию облаков см. в Атласе облаков (PDF).
T - Температура воздуха - температура, измеренная на высоте 2 м над землей.
Td - Температура точки росы - температура, при понижении до которой содержащийся в воздухе водяной пар достигнет насыщения.
f - Относительная влажность воздуха - влажноcть воздуха, измеренная на высоте 2 м над землей.
Te - Эффективная температура - температура, которую ощущает одетый по сезону человек в тени. Характеристика душности погоды. При расчете учитывается влияние влажности воздуха и скорости ветра на теплоощущения человека.
Tes - Эффективная температура на солнце - температура, которую ощущает человек, с поправкой на солнечный нагрев. Характеристика знойности погоды. Зависит от высоты солнца над горизонтом, облачности и скорости ветра. Ночью, в пасмурную погоду, а также при ветре 12 м/с и более поправка равна нулю.
P - Атмосферное давление - приведенное к уровню моря атмосферное давление.
Po - Атмосферное давление - измеренное на уровне метеостанции атмосферное давление.
Tmin - Минимальная температура - минимум температуры воздуха на высоте 2 м над землей.
Tmax - Максимальная температура - максимум температуры воздуха на высоте 2 м над землей.
R - Количество осадков - Количество выпавших осадков за период времени, мм. При наведении курсора мыши на число - период времени, за который выпало указанное количество осадков.
R24 - Количество осадков - Количество выпавших осадков за 24 часа, мм.
S - Снежный покров - Высота снежного покрова, см. При наведении курсора мыши на число - состояние снежного покрова и степень покрытия местности в баллах.